Regional Weather Roundup
Issued by NWS Wakefield, VA

Home | Current Version | Previous Version | Graphics & Text | Print | Product List | Glossary On
Versions: 1 2 3 4 5 6 7 8 9 10 11 12 13 14 15 16 17 18 19 20 21 22 23 24 25 26 27 28 29 30 31 32 33 34 35 36 37 38 39 40 41 42 43 44 45 46 47 48 49 50
865
ASUS41 KAKQ 221415
RWRAKQ

REGIONAL WEATHER ROUNDUP
NATIONAL WEATHER SERVICE WAKEFIELD VA
1000 AM EDT FRI JUL 22 2016

Note: "fair" indicates few or no clouds below 12,000 feet with no
significant weather and/or obstructions to visibility. * = Denotes
station may not report precipitation (e.g., rain,snow,etc.),
thunder or fog.

VAZ042-051-052>054-056-221500-
NORTHERN VIRGINIA

CITY           SKY/WX    TMP DP  RH WIND       PRES   REMARKS
WASH NATIONAL  CLOUDY    82  72  71 S6        30.03F
DULLES         PTSUNNY   81  70  69 SW5       30.04F
FORT BELVOIR   FAIR      82  70  68 W3        30.03F
QUANTICO       PTSUNNY   80  72  76 S5        30.04S
FREDERICKSBRG* FAIR      82  73  72 SW3       30.02F
STAFFORD*      FAIR      81  71  71 W3        30.07F
WARRENTON      FAIR      83  68  60 CALM      30.04F
CULPEPER*      FAIR      79  73  81 CALM      30.05F
MANASSAS*      SUNNY     81  73  78 CALM      30.04F
LEESBURG*      FAIR      82  72  69 SW3       30.04F
WINCHESTER     FAIR      81  64  57 SW6       30.05S
FRONT ROYAL*   FAIR      79  70  73 SW5       30.05F
LURAY*         FAIR      79  72  78 CALM      30.07F
$$

VAZ048-049-060>072-079>083-221500-
CENTRAL AND SOUTH CENTRAL VIRGINIA

CITY           SKY/WX    TMP DP  RH WIND       PRES   REMARKS
RICHMOND       CLOUDY    82  71  69 SW7       30.05S
CHESTERFIELD*  FAIR      82  63  51 SW6       30.06F
PETERSBURG*    FAIR      84  73  69 SW5       30.06F
HANOVER        FAIR      82  70  66 S7        30.05F
TAPPAHANNOCK*  FAIR      83  71  66 S8        30.05F
QUINTON*       FAIR      80  73  81 SW3       30.05F
CHARLOTTSVILLE FAIR      83  70  64 VRB3      30.05F
GORDONSVILLE*  FAIR      80  73  78 CALM      30.04F
ORANGE*          N/A     81  73  78 CALM      30.06F
LOUISA*        FAIR      82  75  78 SW5       30.04F
BUMPASS*       FAIR      80  73  79 W5        30.04F
FARMVILLE*     FAIR      81  73  77 S5        30.04F
CREWE*         FAIR      82  74  77 SW5       30.06F
FORT PICKETT*  FAIR      81  76  82 SW8       30.07S
CHASE CITY*    FAIR      82  74  76 CALM      30.08S
CLARKSVILLE*   FAIR      81  73  78 SW5       30.07F
SOUTH HILL*    FAIR      82  74  77 SW7       30.13F
LAWRENCEVILLE* FAIR      81  74  79 SW6       30.07F
EMPORIA*       FAIR      81  73  78 SE5       30.08F
$$

VAZ088>098-221500-
SOUTHEAST VIRGINIA

CITY           SKY/WX    TMP DP  RH WIND       PRES   REMARKS
NORFOLK        FAIR      85  69  58 SW13      30.07F
VIRGINIA BEACH PTSUNNY   88  69  53 SW13      30.07F
NORFOLK NAVAL  PTSUNNY   85  71  63 SW6       30.08F
WEST POINT*    FAIR      82  71  71 S3        30.07F
SALUDA*        FAIR      83  75  77 SW10      30.04F
NEWPORT NEWS   FAIR      83  73  72 SW8       30.06F
LANGLEY AFB    MOSUNNY   84  73  69 SE12      30.06F
FORT EUSTIS    FAIR      85  75  72 S6        30.04F
WILLIAMSBURG*  FAIR      84  73  70 SW3       30.07F
HR EXEC AP*    FAIR      84  73  70 W10       30.09F
FRANKLIN*      FAIR      82  73  76 S5        30.07F
US460-WAKEFLD  FAIR      81  73  76 S6        30.06F
$$

VAZ020-022-025-037-045-221500-
WEST CENTRAL AND SOUTHWEST VIRGINIA

CITY           SKY/WX    TMP DP  RH WIND       PRES   REMARKS
STAUNTON*      FAIR      74  68  82 CALM      30.10F
WAYNESBORO*    FAIR      79  65  61 SW5       30.10F
HOT SPRINGS VA FAIR      72  57  60 W7        30.22F
LYNCHBURG      FAIR      82  71  69 S5        30.09F
DANVILLE       FAIR      81  73  76 W5        30.08S
SOUTH BOSTON*  FAIR      83  74  74 W5        30.07S
MARTINSVILLE   FAIR      81  72  74 NW5       30.11F
ROANOKE        FAIR      80  67  64 W6        30.12S
BLACKSBURG     FAIR      73  66  77 CALM      30.19S
DUBLIN*        FAIR      76  67  72 CALM      30.17F
MARION*        FAIR      75  64  67 W8        30.22S
HILLSVILLE*    FAIR      75  66  73 W5        30.18F
RICHLANDS*     PTSUNNY   73  66  79 CALM      30.21R
WISE*          FAIR      77  55  47 SW8       30.22R
ABINGDON*      FAIR      78  68  70 W6        30.18S
$$

MDZ021>025-VAZ099-100-221500-
SOUTHERN MARYLAND AND THE DELMARVA PENINSULA

CITY           SKY/WX    TMP DP  RH WIND       PRES   REMARKS
PATUXENT RIVER CLOUDY    85  69  58 SW10      30.02F
BAY BRIDGE APT MOSUNNY   81  72  74 SW6       30.02F
LEONARDTOWN    MOSUNNY   81  68  65 SW9       30.04F
DOVER          PTSUNNY   82  74  78 S12       30.00F
GEORGETOWN     CLOUDY    84  72  67 SW12G18   30.04S
EASTON         SUNNY     84  75  74 SW9       30.06F
CAMBRIDGE      CLOUDY    81  70  69 SW3       30.03S
SALISBURY      MOSUNNY   83  73  72 SW8       30.04F
OCEAN CITY     MOSUNNY   83  73  72 SW10      30.04F
WALLOPS ISLAND PTSUNNY   84  73  69 SW9       30.05F
ACCOMACK*      FAIR      84  72  65 SW12      30.06S
$$

NCZ012>017-030>032-221500-
NORTH CENTRAL AND EASTERN NORTH CAROLINA

CITY           SKY/WX    TMP DP  RH WIND       PRES   REMARKS
ROANOKE RAPIDS FAIR      81  73  78 MISG        N/A
RALEIGH        PTSUNNY   82  72  71 SW9       30.09F
ELIZABETH CITY CLOUDY    83  72  69 SW9       30.09F
AHOSKIE*       SUNNY     81  74  80 S6        30.09S
EDENTON*       CLOUDY    84  71  65 SW5       30.10F
CURRITUCK*     CLOUDY    84  72  68 SW6       30.10S
KILL DEVIL HLS CLOUDY    85  70  61 W7        30.09S
MANTEO           N/A     82  72  71 W6        30.11S
CAPE HATTERAS  SUNNY     83  73  72 NW5       30.11R
TARBORO*       FAIR      82  74  78 CALM      30.10F
GOLDSBORO      CLOUDY    83  77  80 W6        30.09S
WASHINGTON     MOSUNNY   84  69  59 SW5       30.10F
GREENVILLE     CLOUDY    84  73  70 SW6       30.11F
NEW BERN       CLOUDY    85  70  60 W7        30.12S
WILMINGTON     SUNNY     86  69  56 CALM      30.10S
$$

VAZ048-221500-
ELSEWHERE

CITY           SKY/WX    TMP DP  RH WIND       PRES   REMARKS
HARRISBURG PA  MOSUNNY   80  68  66 VRB5      29.99F
BALTIMORE      PTSUNNY   83  69  62 W7        30.01F
ANNAPOLIS      MOSUNNY   82  72  71 CALM      30.01F
ANDREWS AFB    FAIR      82  71  71 SW6       30.03S
PHILADELPHIA   PTSUNNY   83  71  67 SW10      29.99F
GREENSBORO     CLOUDY    82  70  66 W6        30.09S
ROCKY MOUNT    CLOUDY    82  75  79 S7        30.10F
$$

VAZ100-221500-
MARINE

STATION/POSITION TIME  TEMP    WIND        PRES    WAVE   SWELL
                       AIR SEA DIR/SP/G            HT/PER HT/PER
                 (UTC) (F)     (DEG/KT/KT) (MB)    (FT/S) (FT/S)
BRANDYWINE LGT   1300   77     220/ 13/ 14   N/A
CAPE MAY NJ      1300   78 72  210/  8/ 11 1016.5S
LEWES DE         1300   81 71  240/ 10/ 14 1016.8F
15NM E FENWICK I 1350   77                   N/A
OCEAN-CITY-INLET 1300   76 76  210/ 10/ 12 1018.0F
WACHAPREAGUE VA  1300   81 81  220/  5/  8 1017.9F
THOMAS POINT MD  1400   79 81  240/  4/  6 1017.8F
GOOSES REEF MD   1400   82 82  250/ 10/ 14 1017.5F   1/ 3
COVE POINT MD    1300   80     250/ 12/ 15 1017.4R
SOLOMONS ISLAND  1300   82 83  260/  8/ 10   N/A
BISHOPS HEAD MD  1300   81 82  220/ 16/ 17 1017.1F
PINEY POINT MD   1300          320/ 11/ 12   N/A
POTOMAC MD       1400   83 83  260/ 10/ 12 1016.0F   1/ 3
CAMBRIDGE MD     1300   81 85  200/  7/ 11 1016.2R
LEWISETTA VA     1300   81 84  220/  9/ 12 1016.8F
RAPPAHANNOCK LGT 1300          220/ 13/ 15 1018.4F
STINGRAY PT      1400   82 84  160/ 12/ 14 1017.8F   1/ 2
YORK RVR RNG VA  1300   80     230/ 12/ 15 1017.6F
YORKTOWN VA      1300   80 82  220/  7/ 13 1017.8F
JAMESTOWN VA     1400   82 86  220/  2/  6   N/A
DOMINION TERM VA 1300   80     230/ 12/ 14 1018.4F
KIPTOPEKE VA     1300      80  230/ 12/ 14   N/A
CHES BAY BRIDGE  1300   80 80  210/ 12/ 14 1018.4F
CAPE HENRY VA    1300   80     220/  9/ 12   N/A
WILLOUBY STN VA  1300   79     220/ 10/ 11   N/A
CAPE HENRY BUOY  1312      80                N/A     2/ 9
1ST LANDING BUOY 1400   81 80  220/ 12/ 14 1017.9F
CAPE CHARLES BUO 1326      69                N/A     2/ 9
OFFSHORE WE BUOY 1321      82                N/A     3/ 8
64NM E OF VA BCH 1350   81 81  270/ 10/ 10 1018.9F   3/ 8   3/ 8
DUCK PIER NC     1300   81 74  260/  7/  9 1018.8R
44100 DUCK FRF   1305      80                N/A     2/ 8
44056 DUCK FRF   1311      81                N/A     2/ 9
OREGON INLET NC  1300   81 81  270/  5/  7 1019.4R
HATTERAS NC      1300   83 83  300/  4/  5 1019.0R
DIAMOND SHLS NC  1350   83 85  310/  4/  6 1019.6R   3/ 9   3/ 9
CAPE LOOKOUT NC  1400   82     330/  4/  6 1019.2F
$$




USA.gov is the U.S. government's official web portal to all federal, state and local government web resources and services.